Weather observations for the past three days for
Broomfield / Jeffco
Imperial (Metric)
Date Time (mdt) Wind (mph) Vis. (mi.) Weather Sky Cond. Temperature (ºF) Relative Humidity Wind Chill (°F) Heat Index (°F) Pressure Precipitation (in)
Air Dwpt 6 hour altimeter (in) sea level (mb) 1 hr 3 hr 6 hr
Max. Min.
21 00:35 S 6 10.00 Light Rain OVC095 66.2 50 56% 30.22 0.0
21 00:15 Calm 10.00 Rain SCT070 OVC095 66.2 50 56% 30.22 0.0
20 23:55 NW 3 10.00 Overcast SCT049 SCT060 OVC095 68 44.6 43% 30.22 0.0
20 23:35 NW 10 10.00 Light Rain SCT049 SCT060 OVC095 69.8 44.6 40% 30.21 0.0
20 23:15 NW 13 G 21 10.00 Light Rain BKN095 OVC110 71.6 41 33% 30.19 0.0
20 22:55 NW 18 10.00 Overcast OVC120 71.6 42.8 36% 30.18 0.0
20 22:35 NW 14 G 26 10.00 Mostly Cloudy BKN120 69.8 42.8 38% 30.18 0.0
20 22:15 W 21 G 26 10.00 Partly Cloudy and Breezy SCT120 69.8 42.8 38% 30.18 0.0
20 21:45 W 21 G 35 10.00 Mostly Cloudy and Breezy SCT060 BKN120 71.6 44.6 38% 30.19 0.0
20 20:45 N 12 10.00 Mostly Cloudy SCT060 BKN120 69.8 50 50% 30.15 0.0
20 19:50 N 5 10.00 Mostly Cloudy BKN180 75.2 48.2 39% 77 30.11 0.0
20 18:52 S 15 10.00 Showers in Vicinity BKN110 77 46.4 34% 78 30.14 0.0
20 17:45 NE 10 10.00 Showers in Vicinity BKN100 OVC120 77 50 39% 78 30.1 0.0
20 16:53 Calm 10.00 Thunderstorm in Vicinity BKN110 80.6 53.6 39% 80 30.08 0.0
20 15:57 E 8 G 18 10.00 Light Rain SCT019 SCT035 BKN050 75.2 59 57% 78 30.09 0.0
20 14:45 SE 15 G 28 10.00 Showers in Vicinity BKN100 86 48.2 27% 83 30.08 0.0
20 13:50 SE 12 G 28 10.00 Partly Cloudy SCT090 91.4 39.2 16% 87 30.08 0.0
20 12:48 S 20 G 29 10.00 Partly Cloudy SCT090 91.4 39.2 16% 87 30.12 0.0
20 11:45 S 18 G 29 10.00 Partly Cloudy SCT090 87.8 44.6 22% 85 30.15 0.0
20 10:45 SE 17 G 28 10.00 Partly Cloudy SCT100 84.2 46.4 27% 82 30.16 0.0
20 09:53 SE 17 G 25 10.00 Partly Cloudy SCT100 80.6 48.2 32% 80 30.17 0.0
20 09:45 SE 20 G 21 10.00 Partly Cloudy SCT100 78.8 48.2 34% 79 30.18 0.0
20 08:45 Calm 10.00 Partly Cloudy SCT100 68 55.4 64% 30.19 0.0
20 07:45 Calm 10.00 Partly Cloudy SCT100 62.6 55.4 77% 30.2 0.0
20 06:50 NW 3 10.00 Partly Cloudy SCT100 59 53.6 82% 30.19 0.0
20 05:45 N 3 10.00 NULL NULL 57.2 53.6 88% 30.18 0.0
20 05:35 NW 3 10.00 Fair CLR 55.4 51.8 88% 30.17 0.0
20 05:15 W 3 10.00 Fair CLR 55.4 51.8 88% 30.17 0.0
20 04:55 Calm 10.00 Fair CLR 57.2 51.8 82% 30.17 0.0
20 04:35 NE 3 10.00 Fair CLR 57.2 51.8 82% 30.16 0.0
20 04:15 W 3 10.00 Fair CLR 59 51.8 77% 30.17 0.0
20 03:55 NW 5 10.00 Fair CLR 59 51.8 77% 30.17 0.0
20 03:35 Calm 10.00 Fair CLR 59 53.6 82% 30.18 0.0
20 03:15 Calm 10.00 Fair CLR 59 53.6 82% 30.17 0.0
20 02:55 Calm 10.00 Fair CLR 59 51.8 77% 30.19 0.0
20 02:35 NW 5 10.00 Fair CLR 59 53.6 82% 30.19 0.0
20 02:15 W 7 10.00 Partly Cloudy SCT090 SCT120 59 53.6 82% 30.2 0.0
20 01:55 W 3 10.00 Mostly Cloudy SCT100 BKN120 59 53.6 82% 30.2 0.0
20 01:35 S 3 10.00 Mostly Cloudy BKN110 59 53.6 82% 30.21 0.0
20 01:15 Calm 10.00 Partly Cloudy SCT120 60.8 53.6 77% 30.21 0.0
20 00:55 NW 3 10.00 Mostly Cloudy BKN120 60.8 53.6 77% 30.21 0.0
20 00:35 N 7 10.00 Mostly Cloudy BKN120 62.6 51.8 68% 30.22 0.0
20 00:15 NW 6 10.00 Partly Cloudy SCT120 60.8 51.8 72% 30.23 0.0
19 23:55 N 5 10.00 Partly Cloudy SCT110 60.8 51.8 72% 30.22 0.0
19 23:35 N 5 10.00 Mostly Cloudy BKN110 60.8 51.8 72% 30.22 0.0
19 23:15 Calm 10.00 Mostly Cloudy BKN120 60.8 51.8 72% 30.22 0.0
19 22:55 N 3 10.00 Partly Cloudy SCT120 62.6 51.8 68% 30.22 0.0
19 22:35 N 5 10.00 Fair CLR 62.6 51.8 68% 30.22 0.0
19 22:15 N 3 10.00 Fair CLR 62.6 51.8 68% 30.22 0.0
19 21:45 N 9 10.00 Mostly Cloudy BKN100 64.4 51.8 64% 30.21 0.0
19 20:45 W 5 10.00 Mostly Cloudy BKN110 64.4 50 60% 30.18 0.0
19 19:55 Vrbl 3 10.00 Mostly Cloudy BKN110 66.2 50 56% 30.17 0.0
19 18:59 SE 12 10.00 Mostly Cloudy BKN110 71.6 48.2 44% 30.13 0.0
19 17:45 SE 9 10.00 Mostly Cloudy BKN050 71.6 46.4 41% 30.12 0.0
19 16:47 E 8 10.00 Mostly Cloudy BKN050 73.4 48.2 41% 30.13 0.0
19 15:45 SE 8 G 20 10.00 Mostly Cloudy BKN050 75.2 44.6 34% 77 30.14 0.0
19 14:45 SE 14 G 23 10.00 Mostly Cloudy BKN090 73.4 44.6 36% 30.17 0.0
19 13:53 SE 12 G 18 10.00 Mostly Cloudy BKN090 69.8 44.6 40% 30.2 0.0
19 13:45 SE 9 G 22 10.00 Mostly Cloudy BKN090 69.8 42.8 38% 30.21 0.0
19 12:50 E 8 10.00 Mostly Cloudy BKN090 66.2 44.6 46% 30.24 0.0
19 10:55 S 6 10.00 Mostly Cloudy BKN090 59 39.2 48% 30.29 0.0
19 09:48 N 5 10.00 Mostly Cloudy BKN090 59 37.4 45% 30.29 0.0
19 08:51 NW 5 50.00 Mostly Cloudy BKN090 57.2 35.6 44% 30.3 0.0
19 06:45 NW 13 10.00 Mostly Cloudy BKN090 53.6 35.6 51% 30.29 0.0
19 05:45 N 3 10.00 Mostly Cloudy BKN090 55.4 32 41% 30.26 0.0
19 05:35 Calm 10.00 Overcast OVC090 55.4 32 41% 30.26 0.0
19 05:15 NE 5 10.00 Overcast OVC090 55.4 32 41% 30.24 0.0
19 04:55 NE 3 10.00 Overcast OVC090 55.4 32 41% 30.23 0.0
19 04:35 Calm 10.00 Mostly Cloudy BKN090 55.4 32 41% 30.22 0.0
19 04:15 Calm 10.00 Fair CLR 53.6 32 44% 30.22 0.0
19 03:55 Calm 10.00 Fair CLR 51.8 32 47% 30.2 0.0
19 03:35 W 3 10.00 Fair CLR 53.6 32 44% 30.2 0.0
19 03:15 SW 5 10.00 Fair CLR 53.6 32 44% 30.19 0.0
19 02:55 S 5 10.00 Fair CLR 55.4 30.2 38% 30.19 0.0
19 02:35 S 5 10.00 Fair CLR 55.4 30.2 38% 30.19 0.0
19 02:15 S 3 10.00 Fair CLR 59 30.2 34% 30.2 0.0
19 01:55 SE 6 10.00 Partly Cloudy SCT090 59 30.2 34% 30.2 0.0
19 01:35 S 7 10.00 Overcast OVC090 60.8 30.2 31% 30.2 0.0
19 01:15 S 10 10.00 Overcast OVC090 60.8 30.2 31% 30.21 0.0
19 00:55 SE 7 10.00 Overcast OVC090 60.8 28.4 29% 30.22 0.0
19 00:35 SE 7 10.00 Overcast OVC090 60.8 26.6 27% 30.22 0.0
19 00:15 E 10 10.00 Overcast OVC090 60.8 26.6 27% 30.22 0.0
18 23:55 SE 8 10.00 Overcast OVC090 60.8 26.6 27% 30.22 0.0
18 23:35 E 7 10.00 Overcast OVC090 62.6 28.4 27% 30.21 0.0
18 23:15 SE 6 10.00 Overcast OVC090 62.6 26.6 25% 30.2 0.0
18 22:55 E 6 10.00 Overcast OVC090 62.6 26.6 25% 30.19 0.0
18 22:35 E 8 10.00 Thunderstorm OVC100 62.6 26.6 25% 30.18 0.0
18 22:15 E 8 10.00 Overcast OVC100 62.6 26.6 25% 30.16 0.0
18 21:45 E 12 10.00 Mostly Cloudy BKN100 64.4 26.6 24% 30.15 0.0
18 20:59 NE 12 10.00 Mostly Cloudy BKN110 64.4 26.6 24% 30.1 0.0
18 19:45 NE 13 10.00 Mostly Cloudy BKN110 66.2 30.2 26% 30.04 0.0
18 11:45 E 10 G 24 10.00 Mostly Cloudy FEW120 BKN200 66.2 39.2 37% 29.96 0.0
18 10:53 E 13 G 23 10.00 Mostly Cloudy FEW120 BKN200 62.6 32 32% 29.94 0.0
18 09:47 SE 14 G 21 10.00 Mostly Cloudy FEW100 BKN200 59 33.8 39% 29.9 0.0
18 08:45 SE 12 10.00 Mostly Cloudy FEW100 BKN200 57.2 30.2 36% 29.88 0.0
18 07:50 SE 13 G 18 10.00 Mostly Cloudy FEW100 BKN200 59 28.4 31% 29.87 0.0
18 06:52 SE 18 G 23 10.00 A Few Clouds FEW100 FEW200 55.4 26.6 33% 29.86 0.0
18 05:45 SE 9 10.00 Partly Cloudy SCT100 55.4 28.4 36% 29.84 0.0
18 05:35 SE 7 10.00 Fair CLR 55.4 30.2 38% 29.83 0.0
18 05:15 SE 9 10.00 Fair CLR 55.4 32 41% 29.8 0.0
18 04:55 SE 10 10.00 Fair CLR 57.2 32 39% 29.77 0.0
18 04:35 E 10 G 20 10.00 Fair CLR 59 32 36% 29.73 0.0
18 04:15 E 15 10.00 Fair CLR 60.8 33.8 36% 29.7 0.0
18 03:55 NE 12 10.00 Fair CLR 62.6 33.8 34% 29.67 0.0
18 03:35 NE 16 G 20 10.00 Fair CLR 64.4 35.6 34% 29.65 0.0
18 03:15 W 8 10.00 Fair CLR 66.2 30.2 26% 29.62 0.0
18 02:55 W 10 10.00 Fair CLR 66.2 28.4 24% 29.61 0.0
18 02:35 W 14 10.00 Fair CLR 64.4 30.2 28% 29.6 0.0
18 02:15 SW 8 10.00 Fair CLR 64.4 30.2 28% 29.6 0.0
18 01:55 W 6 10.00 Fair CLR 64.4 30.2 28% 29.59 0.0
18 01:35 W 8 10.00 Fair CLR 64.4 30.2 28% 29.59 0.0
18 01:15 SW 6 10.00 Fair CLR 68 28.4 23% 29.59 0.0
18 00:55 W 6 10.00 Fair CLR 69.8 28.4 21% 29.59 0.0
Date Time (mdt) Wind (mph) Vis. (mi.) Weather Sky Cond. Air Dwpt Max. Min. Relative Humidity Wind Chill (°F) Heat Index (°F) altimeter (in) sea level (mb) 1 hr 3 hr 6 hr
6 hour
Temperature (ºF) Pressure Precipitation (in)